User: anonymous   Login
Location: North Smoke Tower Site
(30.5430°N, 82.3390°W)
Time: 09:30:14
(UTC-05:00)
Language:

Cosmos 1980 Rocket - Orbit

View from above orbital plane
View from above orbital plane
View from above satellite
View from above satellite

Ground track
Ground track

The orbit data is extracted from the following two-line orbital elements,

1 19650U 88102B   14326.15059628 -.00000208  00000-0 -81569-4 0  4341
2 19650 070.9985 187.4269 0013777 179.3786 323.6510 14.15688810343231
Epoch (UTC): 22 November 2014 03:36:51
Eccentricity: 0.0013777
inclination: 70.9985°
perigee height: 830 km
apogee height: 850 km
right ascension of ascending node: 187.4269°
argument of perigee: 179.3786°
revolutions per day: 14.15688810
mean anomaly at epoch: 323.6510°
orbit number at epoch: 34323

The dashed part of the orbit path shows where the satellite is in the earth's shadow,  

DLR